Regional Weather Roundup
Issued by NWS

Home | Current Version | Previous Version | Graphics & Text | Print | Product List | Glossary On
Versions: 1 2 3 4 5 6 7 8 9 10 11 12 13 14 15 16 17 18 19 20 21 22 23 24 25 26 27 28 29 30 31 32 33 34 35 36 37 38 39 40 41 42 43 44 45 46 47 48 49 50
000
ASUS43 KMPX 281801
RWRMN
WEATHER ROUNDUP FOR MINNESOTA
NATIONAL WEATHER SERVICE TWIN CITIES/CHANHASSEN MN
100 PM CDT SUN MAY 28 2017


NOTE: "FAIR" INDICATES FEW OR NO CLOUDS BELOW 12,000 FEET WITH NO
SIGNIFICANT WEATHER AND/OR OBSTRUCTIONS TO VISIBILITY. N/A MEANS
CURRENT SKY AND/OR WEATHER CONDITIONS ARE NOT AVAILABLE.

MNZ060>063-068>070-281900-
   Twin Cities Metro

CITY           SKY/WX    TMP DP  RH WIND       PRES   REMARKS
TWIN CITIES    PTSUNNY   70  47  43 NW21G29   29.74F
6HR MIN TEMP:  59; 6HR MAX TEMP:  71;

ST PAUL        MOSUNNY   68  47  46 NW21G33   29.74S
CRYSTAL        MOSUNNY   68  44  42 NW15G22   29.72F
BLAINE         PTSUNNY   70  48  46 W15G21    29.73F
LAKEVILLE      MOSUNNY   68  48  49 W12G23    29.75S
EDEN PRAIRIE   SUNNY     71  46  40 NW14G24   29.74F
6HR MIN TEMP:  57; 6HR MAX TEMP:  71;

SOUTH ST PAUL  MOSUNNY   68  45  43 NW14G23   29.74S
LAKE ELMO      PTSUNNY   66  50  55 NW20      29.75S
$$
MNZ001>005-007-008-013>017-022>024-027-028-281900-
   Northwest Minnesota

CITY           SKY/WX    TMP DP  RH WIND       PRES   REMARKS
BEMIDJI        LGT RAIN  53  51  92 W16G22    29.72R
HALLOCK        CLOUDY    57  50  77 NW13      29.71S
ROSEAU         MOSUNNY   57  50  77 NW15G23   29.68F
WARROAD        MOSUNNY   57  54  88 W15       29.68R
THIEF RVR FALL CLOUDY    59  50  72 NW16G23   29.73F
CROOKSTON      PTSUNNY   61  50  67 NW13G18   29.74F
FOSSTON        CLOUDY    55  50  82 NW15G22   29.75F
DETROIT LAKES  MOSUNNY   61  46  59 NW20G25   29.77S
MOORHEAD       MOSUNNY   66  45  45 NW24G30   29.77S
PARK RAPIDS    LGT RAIN  62  46  55 NW17G25   29.72S
MAHNOMEN       CLOUDY    60  48  65 NW18G29   29.75S
$$
MNZ006-009>011-018-025>026-281900-
   North Central Minnesota

CITY           SKY/WX    TMP DP  RH WIND       PRES   REMARKS
BAUDETTE       LGT RAIN  56  49  77 W14       29.66S
FLAG ISLAND    PTSUNNY   57  50  77 NW21      29.64S
INTL FALLS     CLOUDY    65  47  52 VRB6      29.62F
6HR MIN TEMP:  53; 6HR MAX TEMP:  65; 6HR PCP:  0.01;

WASKISH        CLOUDY    61  50  67 W17       29.67F
BIG FORK       CLOUDY    63  50  63 W5        29.65F
LONGVILLE      TSTM      52  48  87 W3        29.71R
GRAND RAPIDS   CLOUDY    58  50  75 NW9G16    29.68F
CRANE LAKE     RAIN      52  52 100 CALM      29.65S
ORR            CLOUDY    59  46  63 NW9       29.62R
COOK           LGT RAIN  54  50  87 CALM      29.64S
WALKER         CLOUDY    58  50  75 NW7       29.70F
$$
MNZ012-019>021-037-281900-
   Northeast Minnesota

CITY           SKY/WX    TMP DP  RH WIND       PRES   REMARKS
DULUTH         LGT RAIN  61  54  77 W13       29.65S
6HR MIN TEMP:  53; 6HR MAX TEMP:  62; 6HR PCP:  0.25;

ELY            LGT RAIN  57  50  77 CALM      29.62F
HIBBING        MOSUNNY   60  47  61 W8        29.64F
EVELETH        CLOUDY    59  49  69 W9        29.65S
DULUTH HARBOR  LGT RAIN  57  55  94 SW6       29.66S
TWO HARBORS    CLOUDY    59  54  82 S9        29.63S
SILVER BAY     CLOUDY    57  52  82 CALM      29.63F
GRAND MARAIS     N/A     49  42  77 W8        29.65F
G MARAIS ARPRT MOSUNNY   59  43  55 S9G18     29.66S
$$
MNZ029>031-032-039>041-046>048-054>057-064-281900-
   West Central Minnesota

CITY           SKY/WX    TMP DP  RH WIND       PRES   REMARKS
FERGUS FALLS   TSTM      54  50  87 NW31G40   29.77R
WHEATON        MOSUNNY   68  41  37 NW23G30   29.80F
MORRIS         MOSUNNY   70  46  43 NW21G31   29.78F
ALEXANDRIA     PTSUNNY   64  47  53 NW14G23   29.78S
ELBOW LAKE     PTSUNNY   60  51  70 NW9       29.79R
WADENA         MOSUNNY   63  48  59 NW20      29.74S
GLENWOOD       MOSUNNY   66  46  48 NW21G26   29.78S
APPLETON       MOSUNNY   68  43  40 NW20      29.80F
BENSON         SUNNY     72  45  37 NW26G32   29.80S
ORTONVILLE     MOSUNNY   68  43  40 NW15G24   29.81F
MADISON        MOSUNNY   72  46  40 W21G28    29.81F
WILLMAR        FAIR      68  46  45 NW17G28   29.80R
$$
MNZ033>034-036-042>043-049>051-058-059-281900-
   Central Minnesota

CITY           SKY/WX    TMP DP  RH WIND       PRES   REMARKS
ST CLOUD       PTSUNNY   65  47  52 W17G28    29.73S
6HR MIN TEMP:  54; 6HR MAX TEMP:  67;

SAUK CENTRE    MOCLDY    64  45  49 W15G26    29.76S
PAYNESVILLE    MOSUNNY   69  42  37 W24G32    29.77S
AITKIN         CLOUDY    63  48  59 NW7       29.67F
PINE RIVER     CLOUDY    55  50  82 N7        29.76R
BRAINERD       LGT RAIN  56  50  80 NW8       29.73R
STAPLES        CLOUDY    66  46  48 W16G24    29.73S
LONG PRAIRIE   PTSUNNY   63  45  51 W16G22    29.75S
LITTLE FALLS   CLOUDY    63  45  51 NW10G18   29.73S
LITCHFIELD     MOSUNNY   70  46  43 NW16G28   29.77S
BUFFALO        PTSUNNY   67  46  46 W13G20    29.75F
MAPLE LAKE     PTSUNNY   68  49  50 W12G18    29.75S
HUTCHINSON     CLOUDY    69  46  43 W22G30    29.78F
$$
MNZ037-044-045-052-053-281900-
   East Central Minnesota

CITY           SKY/WX    TMP DP  RH WIND       PRES   REMARKS
PRINCETON      MOSUNNY   70  48  46 W16       29.72F
MORA           MOSUNNY   63  50  63 NW9       29.73S
CAMBRIDGE      MOSUNNY   70  52  52 W16       29.70F
RUSH CITY      CLOUDY    64  49  57 NW10      29.72S
MOOSE LAKE     PTSUNNY   63  46  55 W8G20     29.67S
HINCKLEY       CLOUDY    63  50  63 W12G20    29.70F
CLOQUET        CLOUDY    61  46  59 W14       29.66F
MCGREGOR       CLOUDY    59  48  67 W8G18     29.69F
$$
MNZ071>073-080-081-089-090-097-098-281900-
   Southwest Minnesota

CITY           SKY/WX    TMP DP  RH WIND       PRES   REMARKS
MONTEVIDEO     MOSUNNY   72  45  37 N18G26    29.80S
CANBY          MOSUNNY   69  45  41 NW18G28   29.84S
MARSHALL       MOSUNNY   70  44  39 NW22G32   29.82S
REDWOOD FALLS  CLOUDY    69  44  40 W13G22    29.80S
OLIVIA         CLOUDY    70  43  37 NW20G30   29.79S
PIPESTONE      MOSUNNY   70  28  21 NW15G33   29.87S
WINDOM         MOSUNNY   70  39  32 W17G25    29.84S
WORTHINGTON    PTSUNNY   68  44  42 NW20G26   29.87R
JACKSON        PTSUNNY   70  41  35 NW20G26   29.85S
TRACY          PTSUNNY   71  42  34 NW20G30   29.84S
SLAYTON        PTSUNNY   67  42  39 W16G26    29.86S
$$
MNZ065>067-074>077-082>085-091>093-281900-
   South Central Minnesota

CITY           SKY/WX    TMP DP  RH WIND       PRES   REMARKS
MANKATO        PTSUNNY   69  44  40 NW17      29.79S
NEW ULM        MOSUNNY   70  39  32 W22       29.79F
ST JAMES       MOSUNNY   72  41  33 W18G28    29.83S
FAIRMONT       PTSUNNY   71  43  36 NW21      29.83S
GLENCOE        PTSUNNY   70  49  46 NW16G23   29.76F
FARIBAULT      MOSUNNY   70  45  40 W18G24    29.78S
OWATONNA       PTSUNNY   70  43  37 NW18      29.78F
WASECA         PTSUNNY   70  45  40 NW20      29.80S
ALBERT LEA     MOSUNNY   72  43  35 W13G25    29.80S
$$
MNZ078>079-086>088-094>096-281900-
   Southeast Minnesota

CITY           SKY/WX    TMP DP  RH WIND       PRES   REMARKS
ROCHESTER      SUNNY     69  46  43 NW22G31   29.78S
6HR MIN TEMP:  55; 6HR MAX TEMP:  70;

RED WING       SUNNY     70  41  35 NW12G23   29.73F
STANTON        MOSUNNY   69  47  45 NW18G30   29.75S
DODGE CENTER   MOSUNNY   68  45  42 W13G21    29.78S
WINONA         SUNNY     70  45  40 NW18G29   29.74R
AUSTIN         MOSUNNY   70  46  43 NW13G20   29.78F
PRESTON        MOSUNNY   68  46  44 W23G30    29.77S
$$
ABBREVIATIONS USED IN REMARKS
   TC - TEMPERATURES IN CELSIUS
  WCI - WIND CHILL INDEX
   HX - HEAT INDEX
  VSB - VISIBILITY
$$



USA.gov is the U.S. government's official web portal to all federal, state and local government web resources and services.